Total_Precipitation_Accumulation
0.00 0.00 0.00 0.00 0.00 0.00 0.00 0.00 0.01 0.02 0.03 0.03 0.01 0.01 0.02 0.02 0.03 0.04 0.05 0.07 0.11 0.20 0.27 0.33 0.37 0.40 0.65 0.82 0.84 0.96 0.93 0.82 0.52 0.36 0.23 0.16 0.14 0.13 0.13 0.16 0.15 0.19 0.23 0.27
0.00 0.00 0.00 0.00 0.00 0.00 0.00 0.00 0.00 0.03 0.05 0.03 0.01 0.00 0.01 0.02 0.02 0.02 0.03 0.06 0.10 0.15 0.21 0.19 0.15 0.27 0.31 0.38 0.44 0.47 0.48 0.40 0.24 0.17 0.15 0.13 0.11 0.08 0.07 0.07 0.09 0.09 0.12 0.17
0.00 0.00 0.00 0.00 0.00 0.00 0.00 0.00 0.00 0.03 0.04 0.01 0.03 0.08 0.10 0.07 0.03 0.04 0.06 0.07 0.10 0.11 0.07 0.04 0.04 0.08 0.25 0.45 0.39 0.24 0.24 0.19 0.12 0.10 0.10 0.09 0.09 0.09 0.09 0.07 0.07 0.08 0.07 0.09
0.00 0.00 0.00 0.00 0.00 0.00 0.01 0.00 0.00 0.00 0.00 0.05 0.09 0.21 0.26 0.15 0.12 0.11 0.11 0.08 0.06 0.03 0.01 0.01 0.02 0.05 0.14 0.26 0.26 0.20 0.19 0.18 0.11 0.08 0.07 0.06 0.06 0.07 0.07 0.07 0.06 0.06 0.06 0.07
0.00 0.00 0.00 0.00 0.00 0.00 0.00 0.00 0.00 0.00 0.00 0.02 0.09 0.30 0.36 0.23 0.26 0.16 0.12 0.07 0.03 0.01 0.01 0.00 0.00 0.01 0.02 0.05 0.11 0.14 0.20 0.25 0.17 0.13 0.09 0.08 0.06 0.05 0.06 0.06 0.07 0.08 0.10 0.11
0.00 0.00 0.00 0.00 0.00 0.00 0.00 0.00 0.01 0.03 0.04 0.12 0.20 0.21 0.32 0.22 0.18 0.08 0.04 0.02 0.01 0.01 0.01 0.00 0.00 0.00 0.01 0.04 0.06 0.08 0.14 0.19 0.17 0.14 0.13 0.14 0.14 0.13 0.11 0.11 0.11 0.14 0.17 0.19
0.02 0.02 0.01 0.00 0.00 0.01 0.00 0.00 0.06 0.13 0.17 0.19 0.10 0.12 0.22 0.11 0.05 0.01 0.01 0.01 0.01 0.00 0.00 0.01 0.01 0.01 0.01 0.03 0.03 0.03 0.05 0.08 0.10 0.09 0.10 0.15 0.23 0.29 0.29 0.25 0.21 0.20 0.21 0.23
0.05 0.09 0.02 0.01 0.01 0.00 0.00 0.00 0.01 0.01 0.03 0.04 0.06 0.26 0.19 0.07 0.03 0.01 0.00 0.00 0.00 0.00 0.00 0.00 0.01 0.01 0.01 0.01 0.01 0.01 0.01 0.01 0.02 0.03 0.05 0.07 0.11 0.18 0.26 0.31 0.30 0.30 0.32 0.27
0.01 0.02 0.01 0.01 0.00 0.00 0.01 0.00 0.00 0.01 0.00 0.01 0.05 0.15 0.09 0.03 0.01 0.01 0.00 0.00 0.00 0.00 0.00 0.00 0.00 0.00 0.00 0.00 0.00 0.00 0.00 0.00 0.00 0.00 0.01 0.01 0.02 0.03 0.06 0.10 0.14 0.21 0.31 0.30
0.00 0.00 0.01 0.00 0.00 0.01 0.01 0.00 0.00 0.00 0.00 0.00 0.01 0.12 0.19 0.06 0.03 0.01 0.01 0.00 0.00 0.00 0.00 0.00 0.00 0.00 0.00 0.00 0.00 0.00 0.00 0.00 0.00 0.00 0.00 0.00 0.01 0.01 0.02 0.03 0.04 0.06 0.11 0.14
0.00 0.00 0.00 0.00 0.00 0.01 0.00 0.00 0.00 0.00 0.00 0.00 0.00 0.04 0.07 0.05 0.03 0.02 0.01 0.00 0.00 0.00 0.00 0.00 0.00 0.00 0.00 0.00 0.00 0.00 0.00 0.00 0.00 0.00 0.00 0.00 0.00 0.00 0.00 0.01 0.01 0.01 0.02 0.02
0.00 0.00 0.00 0.00 0.00 0.00 0.00 0.01 0.01 0.01 0.01 0.01 0.01 0.01 0.01 0.01 0.01 0.00 0.00 0.00 0.00 0.00 0.00 0.00 0.00 0.00 0.00 0.00 0.00 0.00 0.00 0.00 0.00 0.00 0.00 0.00 0.00 0.00 0.00 0.00 0.00 0.00 0.00 0.00
0.00 0.00 0.00 0.02 0.03 0.01 0.00 0.01 0.01 0.01 0.02 0.01 0.01 0.02 0.01 0.00 0.00 0.00 0.00 0.00 0.00 0.00 0.00 0.00 0.00 0.00 0.00 0.00 0.00 0.00 0.00 0.00 0.00 0.00 0.00 0.00 0.00 0.00 0.00 0.00 0.00 0.00 0.00 0.01
0.00 0.00 0.00 0.00 0.00 0.00 0.00 0.01 0.01 0.00 0.00 0.00 0.00 0.00 0.00 0.00 0.00 0.00 0.00 0.00 0.00 0.00 0.00 0.00 0.00 0.00 0.00 0.00 0.00 0.00 0.00 0.00 0.00 0.00 0.00 0.01 0.01 0.01 0.01 0.01 0.01 0.01 0.01 0.02
0.00 0.00 0.00 0.00 0.00 0.00 0.00 0.00 0.00 0.00 0.00 0.00 0.00 0.00 0.00 0.00 0.00 0.00 0.00 0.00 0.00 0.00 0.00 0.00 0.00 0.00 0.00 0.00 0.00 0.00 0.00 0.00 0.00 0.02 0.01 0.01 0.01 0.01 0.01 0.01 0.02 0.02 0.03 0.03
0.00 0.00 0.00 0.00 0.00 0.00 0.00 0.00 0.00 0.00 0.00 0.00 0.00 0.00 0.00 0.00 0.00 0.00 0.00 0.00 0.00 0.00 0.00 0.00 0.00 0.00 0.00 0.00 0.00 0.00 0.00 0.00 0.00 0.01 0.01 0.01 0.02 0.03 0.04 0.04 0.05 0.06 0.07 0.08
0.00 0.00 0.00 0.00 0.00 0.00 0.00 0.00 0.00 0.00 0.00 0.00 0.00 0.00 0.00 0.00 0.00 0.00 0.00 0.00 0.00 0.00 0.00 0.00 0.00 0.00 0.00 0.00 0.00 0.00 0.00 0.01 0.00 0.01 0.01 0.01 0.03 0.04 0.06 0.08 0.11 0.11 0.12 0.13
0.00 0.00 0.00 0.00 0.00 0.00 0.00 0.00 0.00 0.00 0.00 0.00 0.00 0.00 0.00 0.00 0.00 0.00 0.00 0.00 0.00 0.00 0.00 0.00 0.00 0.00 0.00 0.00 0.00 0.00 0.00 0.01 0.01 0.01 0.02 0.03 0.05 0.07 0.10 0.12 0.14 0.17 0.19 0.20
0.00 0.00 0.00 0.00 0.00 0.00 0.00 0.00 0.00 0.00 0.00 0.00 0.00 0.00 0.00 0.00 0.00 0.00 0.00 0.00 0.00 0.00 0.00 0.00 0.00 0.00 0.00 0.01 0.01 0.01 0.01 0.01 0.02 0.03 0.04 0.06 0.09 0.11 0.13 0.15 0.17 0.22 0.24 0.22
0.00 0.00 0.00 0.00 0.00 0.00 0.00 0.00 0.00 0.00 0.00 0.00 0.00 0.00 0.00 0.00 0.00 0.00 0.00 0.00 0.00 0.00 0.00 0.00 0.00 0.00 0.01 0.02 0.01 0.02 0.03 0.04 0.06 0.07 0.08 0.10 0.13 0.15 0.16 0.17 0.19 0.22 0.25 0.25
0.00 0.00 0.00 0.00 0.00 0.00 0.00 0.00 0.00 0.00 0.00 0.00 0.00 0.00 0.00 0.00 0.00 0.00 0.00 0.00 0.00 0.00 0.00 0.00 0.00 0.00 0.01 0.02 0.03 0.05 0.06 0.07 0.07 0.08 0.10 0.11 0.12 0.14 0.15 0.18 0.20 0.21 0.23 0.22
0.00 0.00 0.00 0.00 0.00 0.00 0.00 0.00 0.00 0.00 0.00 0.00 0.00 0.00 0.00 0.00 0.00 0.00 0.00 0.00 0.00 0.00 0.00 0.00 0.00 0.01 0.02 0.04 0.06 0.07 0.07 0.06 0.06 0.07 0.09 0.10 0.11 0.13 0.15 0.21 0.23 0.23 0.23 0.22
0.00 0.00 0.00 0.00 0.00 0.00 0.00 0.00 0.00 0.00 0.00 0.00 0.00 0.00 0.00 0.00 0.00 0.00 0.00 0.00 0.00 0.00 0.00 0.00 0.01 0.01 0.03 0.05 0.07 0.10 0.10 0.08 0.08 0.09 0.10 0.11 0.13 0.16 0.21 0.27 0.28 0.28 0.29 0.29
0.00 0.00 0.00 0.00 0.00 0.00 0.00 0.00 0.00 0.00 0.00 0.00 0.00 0.00 0.00 0.00 0.00 0.00 0.00 0.00 0.00 0.00 0.00 0.01 0.02 0.03 0.04 0.05 0.08 0.11 0.13 0.13 0.14 0.14 0.12 0.13 0.15 0.15 0.18 0.25 0.27 0.29 0.30 0.29
0.00 0.00 0.00 0.00 0.00 0.00 0.00 0.00 0.00 0.00 0.00 0.00 0.00 0.00 0.00 0.00 0.00 0.00 0.00 0.00 0.00 0.00 0.01 0.02 0.03 0.04 0.05 0.06 0.08 0.09 0.12 0.16 0.17 0.16 0.14 0.13 0.11 0.11 0.13 0.18 0.21 0.18 0.21 0.17
0.00 0.00 0.00 0.00 0.00 0.00 0.00 0.00 0.00 0.00 0.00 0.00 0.00 0.00 0.00 0.00 0.00 0.00 0.00 0.00 0.00 0.01 0.02 0.03 0.04 0.04 0.04 0.05 0.05 0.05 0.07 0.13 0.19 0.19 0.16 0.13 0.11 0.13 0.15 0.16 0.18 0.17 0.13 0.11